Tracking 25711 objects as of 22-May-2022
HD Live streaming from Space Station
objects crossing your sky now

SL-8 R/B

Track SL-8 R/B now!
10-day predictions


NORAD ID: 18403
Int'l Code: 1987-087B
Perigee: 940.9 km
Apogee: 1,025.4 km
Inclination: 82.9 °
Period: 104.6 minutes
Semi major axis: 7354 km
RCS: 4.8677 m2 (large)
Launch date: October 14, 1987
Source: Commonwealth of Independent States (former USSR) (CIS)
Launch site: PLESETSK MISSILE AND SPACE COMPLEX (PKMTR)

Note: This is a ROCKET BODY
aabbcc
Your satellite tracking list
Your tracking list is empty




NASA's NSSDC Master Catalog

Two Line Element Set (TLE):
1 18403U 87087B   22141.89213800  .00000024  00000-0  85330-5 0  9997
2 18403  82.9197 191.1708 0057446 189.5715 170.4353 13.76578080737648
Source of the keplerian elements: AFSPC